Showing default

PORCUPINE 2, 1577

Orbit data source: Space-Track

PORCUPINE 2, 1577 is a payload satellite owned by NRL (US) in LEO that was launched on Fri, 13 Aug 1965 UTC via a THOR ABLESTAR launch vehicle from the Air Force Western Test Range (AFWTR). Payload-class satellites include a variety of spacecraft equipped with specific instruments for various scientific and technological missions. These include communications satellites like Starlink; space stations such as the ISS; scientific satellites like the Hubble; Earth observation satellites from companies like Planet Labs, Umbra, and HawkEye 360; GPS; miniature CubeSats for education and research; and military/defense satellites.

Loading next visibility...
Identifier
1577, 1965-065J
Orbit
LEO
Country
Flag of USUS
Related business
Manufacturer
NRL
Mission
Defense Calibration
Bus & Motor
SURCAL, Unknown motor
Mass
5 kg wet, 5 kg dry
Launch date (UTC)
1965-08-13 (60 years ago)
Launch vehicle
THOR ABLESTAR
Launch site
Air Force Western Test Range (AFWTR)
Object type
Payload
Rocket body
Debris
Shape & HBR
Box, 0.1 m
Radar Cross Section
0.060 m², Medium (>0.1 m² and < 1m²)

Expand to show TLE details & history
Last TLE update: 9 hours ago

TLE from 9 hours ago
0 PORCUPINE 2
1 01577U 65065J   25261.13229491  .00000120  00000-0  21241-3 0  9995
2 01577  90.0155 211.4256 0070843 149.8017 270.5078 13.36191180926329
Epoch: 2025-09-18T03:10Z
TLE epoch observation values (Epoch: 2025-09-18T03:10:30.28Z)
Latitude
59.58735°
Longitude
166.47488°
Altitude
1,133.599 km
Speed
7.292 km/s
True Right ascension
14h 05m 35s
True Declination
59° 26' 40"
Sunlit
Object was in daylight at epoch
Visualization orbit readout
Latitude
Unknown
Longitude
Unknown
Altitude
Unknown
Speed
Unknown
Apparent Right ascension
Unknown
Apparent Declination
Unknown
Sunlit
N/A
Visualization observer readout
Local Sidereal Time
05:26:02
Azimuth
Unknown
Elevation
Unknown
Doppler factor
Unknown
Orbital elements
Apogee altitude
1,173.694 km
Perigee altitude
1,067.448 km
Semi-major axis
7,498.708 km
Eccentricity
0.00708
Inclination
90.0155°
RAAN
211.4256°
Arg. of periapsis
149.8017°
True anomaly
269.69599°
Mean anomaly
270.5078°
Eccentric anomaly
270.1019°
Mean motion
3.34244 °/min
Orbital period
107.71 mins
BSTAR
0.00021241
Loading maneuver chart data...
Computing Atmospheric mass density...
Loading historical data...
Loading historical data...
Loading historical data...
Loading historical data...
Loading historical data...
Loading historical data...
Loading historical data...

Documentation

Showing up to 5 results
|